Welcome to the New NWS' Forecast!
Most changes are behind the scenes, but click here for differences you might notice.

Regional Weather Roundup (RWR)

Issued by Nashville, TN (OHX)

                            
874 
ASUS44 KOHX 201210
RWROHX
MIDDLE TENNESSEE HOURLY WEATHER ROUNDUP
NATIONAL WEATHER SERVICE NASHVILLE TN
700 AM CDT MON AUG 20 2018

NOTE: "FAIR" INDICATES FEW OR NO CLOUDS BELOW 12,000 FEET WITH
NO SIGNIFICANT WEATHER AND/OR OBSTRUCTIONS TO VISIBILITY.

* THESE REPORTS ARE NOT UNDER NWS QUALITY CONTROL AND MAY NOT
  REPORT WEATHER SUCH AS PRECIPITATION AND FOG.


TNZ005>011-023>034-057-059-062>066-078-080-201300
...NORTHERN MIDDLE TENNESSEE...
  
CITY           SKY/WX    TMP DP  RH WIND       PRES   REMARKS
CLARKSVILLE    MOCLDY    74  71  91 S6        29.90S                  
CROSSVILLE     PTSUNNY   70  68  93 S3        30.05F                  
DICKSON        MOCLDY    73  72  94 S9        29.94S                  
GALLATIN       FOG       73  73 100 S5        29.98R VSB 1/2          
LEBANON        CLOUDY    75  73  94 W15       29.96R                  
LIVINGSTON     MOSUNNY   72  72 100 S3        30.00S                  
NASHVILLE      LGT RAIN  75  72  90 S7        29.97R FOG              
PORTLAND       FOG       73  73 100 SE5G13    29.95R VSB 1            
ROCKWOOD       PTSUNNY   70  70 100 CALM      30.05S FOG              
SMYRNA         HVY RAIN  73  73 100 S6        29.98R FOG              
SPARTA         SUNNY     72  70  94 S5        29.98F                  
SPRINGFIELD    MOCLDY    73  73 100 S5        29.93S                  
WEST NASHVILLE CLOUDY    75  73  94 S6        29.93S                  
$$
TNZ056-058-060-061-075>077-079-093>097-201300
...SOUTHERN MIDDLE TENNESSEE...
  
CITY           SKY/WX    TMP DP  RH WIND       PRES   REMARKS
COLUMBIA       PTCLDY    73  73 100 MISG      29.96R                  
FAYETTEVILLE   CLOUDY    73  72  94 SW9       30.02R                  
LAWRENCEBURG   CLOUDY    72  72 100 S5G12     30.00R FOG              
MCMINNVILLE    PTCLDY    72  72 100 SW3       30.00S                  
PULASKI        FOG       73  72  94 S5        30.00R VSB 3/4          
SHELBYVILLE    CLOUDY    73  72  94 S9        30.00R                  
TULLAHOMA      CLOUDY    72  70  94 SW6G12    30.02R                  
WINCHESTER     CLOUDY    73  70  88 S8        30.01S                  
$$


...KEY TO REMARKS...
VSB - VISIBILITY IN MILES
WCI - WIND CHILL INDEX
HX  - HEAT INDEX